Wind_Speed
35 38 42 43 45 49 51 52 51 48 50 51 53 54 54 55 53 51 50 50 48 44 42 41 40 38 37 36 35 34 33 33 33 33 33 34 34 35 35 36 37 37 39
35 37 41 42 44 46 49 50 49 48 49 50 51 53 52 51 51 50 48 48 47 43 41 40 38 37 36 35 34 33 32 32 32 32 33 33 34 34 34 36 36 38 39
34 35 38 41 43 44 47 47 47 48 48 48 50 52 51 49 49 48 47 45 44 43 41 39 37 36 35 34 32 32 31 32 32 32 32 33 33 34 35 36 37 38 39
32 34 34 38 41 42 44 46 47 47 46 45 46 48 50 49 47 46 44 42 42 40 39 38 36 35 34 32 31 31 31 31 32 32 33 33 33 34 34 35 36 38 40
33 35 34 34 39 40 41 43 45 46 46 45 43 44 47 47 46 45 43 41 40 39 37 36 35 34 32 32 31 31 30 31 31 31 32 33 33 33 34 35 36 38 40
31 34 36 36 37 38 40 42 44 44 45 45 42 41 44 45 45 45 44 40 38 37 36 35 35 34 32 32 31 30 30 31 31 31 31 32 33 33 33 34 36 38 40
30 33 35 36 37 38 40 41 43 44 45 45 43 42 43 44 45 44 42 39 38 37 36 35 34 33 32 31 30 30 30 31 30 31 32 32 32 32 33 34 36 38 41
31 33 36 37 37 38 40 42 43 43 43 45 43 42 42 43 44 42 43 40 38 37 36 35 34 33 32 31 30 30 31 30 30 31 31 32 31 31 33 34 36 39 41
29 32 35 36 37 38 40 42 42 41 42 44 43 42 42 42 43 43 42 41 39 37 36 35 34 34 33 31 30 30 30 30 30 30 30 30 31 32 33 35 37 39 40
28 31 33 35 36 37 39 41 41 40 40 43 43 43 43 42 42 43 42 39 38 37 37 36 35 35 34 32 31 30 29 29 29 29 30 31 31 32 34 35 37 39 40
29 31 33 34 35 37 38 39 41 40 41 42 43 44 44 42 42 43 41 39 38 38 36 35 35 35 34 32 31 29 28 29 29 30 30 30 31 33 34 35 38 39 40
29 31 33 33 34 35 37 38 40 40 40 42 43 43 43 42 41 41 41 40 38 37 37 36 35 36 35 32 31 31 30 30 29 30 30 30 31 32 34 36 37 38 40
29 31 32 33 34 35 36 37 38 39 40 40 41 42 41 42 41 39 39 39 39 37 37 35 34 34 34 33 32 31 30 29 29 30 29 30 31 32 34 35 36 38 40
28 30 32 34 35 36 36 36 38 38 39 39 40 40 40 40 40 38 37 38 40 39 37 35 34 33 33 33 33 32 30 29 28 28 29 30 31 32 33 34 36 37 39
27 28 30 33 34 34 35 35 36 37 37 39 40 39 39 39 39 38 37 36 37 37 37 36 34 32 32 33 33 32 30 28 28 28 29 30 30 31 33 34 35 37 39
27 28 30 32 33 34 35 36 36 36 37 38 38 38 38 39 39 38 37 36 35 35 36 34 33 32 31 30 30 30 30 29 28 28 28 29 30 32 34 35 36 37 38
27 28 29 31 33 34 36 36 36 34 36 37 38 38 38 39 39 38 37 35 34 34 34 32 32 31 31 30 29 29 29 27 27 27 27 28 30 32 33 34 35 36 36
26 27 28 30 32 34 36 36 35 34 35 37 39 39 38 38 38 37 36 35 34 34 33 32 31 30 29 28 28 27 27 26 25 25 26 28 30 31 32 33 34 34 35
24 26 28 29 31 33 35 36 35 35 35 36 38 39 38 37 37 37 36 34 34 34 32 31 30 28 27 26 26 25 25 24 24 24 26 28 28 29 30 31 32 33 35
23 24 26 28 30 32 33 34 35 36 37 37 37 37 37 37 37 37 36 34 33 33 32 30 29 27 25 25 24 23 23 23 23 24 26 27 27 27 29 30 32 33 34
24 24 25 27 29 32 32 32 34 36 37 37 37 37 37 37 37 36 35 34 32 31 30 29 28 27 26 25 24 23 23 23 23 23 24 25 26 27 28 30 31 32 33
24 25 26 27 29 30 31 31 32 35 36 36 37 37 36 37 37 36 35 33 31 31 30 28 27 26 25 24 23 23 22 22 22 23 23 24 25 27 28 29 30 30 31
24 25 26 27 29 30 30 31 31 33 35 36 36 36 36 36 36 36 35 33 31 31 30 28 27 26 25 24 22 21 21 21 22 22 23 24 25 26 27 27 28 29 30
23 25 26 27 28 28 29 29 31 32 33 34 36 37 36 35 35 35 34 33 31 30 28 27 26 25 24 23 22 21 20 20 21 21 22 23 24 24 25 26 27 28 29
24 25 26 27 28 28 29 29 30 32 33 33 34 36 35 34 35 35 34 33 31 29 28 26 25 25 24 22 21 20 20 19 20 20 21 21 22 23 24 25 26 26 26
24 25 26 26 27 28 28 29 30 32 32 32 33 34 34 34 34 34 33 32 30 29 27 26 25 24 23 22 21 20 20 19 19 20 20 20 21 22 23 23 24 24 25
Wind_Direction
233 229 224 222 222 219 217 217 216 218 219 219 220 220 221 222 224 226 229 231 233 235 236 238 240 242 246 250 254 258 262 266 270 274 278 282 286 288 290 293 296 299 302
231 227 224 221 218 215 216 215 218 219 218 219 221 220 220 222 224 225 228 231 232 233 236 237 238 242 246 249 253 257 261 265 269 274 279 283 286 288 291 294 296 300 304
228 225 223 220 215 214 215 215 217 217 217 219 221 220 220 222 224 225 226 229 230 232 234 234 238 242 245 248 252 256 260 264 268 274 279 283 285 288 292 294 298 302 305
228 222 217 217 215 215 216 217 215 214 215 216 218 220 221 221 222 224 224 226 228 230 232 234 237 240 244 247 251 255 260 265 269 274 279 282 285 289 292 295 298 302 305
226 219 218 217 215 215 217 216 214 214 215 217 218 219 219 218 220 223 224 227 228 229 231 233 235 238 242 245 250 256 260 264 270 275 279 282 286 289 293 296 299 303 306
227 223 221 220 216 216 216 215 215 216 218 219 220 219 218 218 219 223 224 227 227 227 229 231 235 239 242 246 251 255 260 265 270 274 278 282 286 289 294 298 301 304 306
228 225 223 223 220 219 216 214 215 218 221 221 220 219 217 218 220 222 222 224 225 225 228 232 235 239 243 246 249 254 261 266 269 274 279 282 286 289 294 299 301 304 307
231 229 225 224 223 220 216 215 217 219 220 219 218 220 218 218 219 219 220 221 223 225 228 232 235 239 242 245 249 255 261 265 270 274 279 282 285 290 294 298 301 305 308
232 230 226 224 223 221 218 217 218 219 218 217 218 220 218 217 218 219 220 220 222 225 228 232 234 238 240 245 249 255 259 265 270 276 279 281 285 290 294 297 301 305 308
233 230 227 225 223 221 220 219 219 217 216 217 219 219 217 217 218 219 219 221 223 225 228 231 234 239 243 245 250 255 260 265 271 275 278 281 285 289 294 298 302 304 307
235 231 228 226 225 223 220 219 218 217 217 218 219 218 217 217 218 219 219 220 224 226 228 231 234 238 242 246 249 252 259 265 271 275 279 282 286 290 294 298 302 305 308
234 230 228 227 225 222 219 218 218 217 216 217 218 218 218 218 219 221 221 222 222 226 229 231 234 237 240 244 247 251 259 265 271 275 278 283 286 290 294 299 303 307 309
233 230 228 226 225 223 220 218 217 216 214 215 215 216 218 219 219 220 220 221 223 226 228 231 234 236 238 242 246 253 259 264 270 274 276 282 285 290 295 301 304 307 310
233 230 228 226 224 222 218 217 217 216 215 216 215 216 217 217 218 219 219 221 223 225 229 231 232 234 238 242 247 253 257 264 269 272 276 281 286 292 298 302 305 308 311
232 231 228 224 220 218 216 215 215 215 215 214 215 216 217 217 218 220 221 220 222 225 229 232 232 234 238 243 248 253 257 261 265 272 277 281 287 293 299 303 305 307 311
233 230 226 221 218 217 215 213 212 212 213 213 213 213 214 215 219 220 220 220 222 224 227 230 231 235 240 244 249 253 257 259 263 272 279 284 289 295 299 302 304 307 311
232 228 224 220 217 215 214 213 210 211 212 212 211 210 211 213 216 219 221 222 223 225 227 229 230 235 237 242 247 252 256 259 265 272 280 287 291 296 299 302 304 308 311
227 225 221 217 215 214 214 212 210 209 210 211 211 209 210 212 214 216 219 222 224 225 226 228 230 234 238 243 248 251 255 259 266 273 281 288 293 297 299 302 305 309 312
225 222 220 218 216 215 213 212 211 209 208 208 208 209 208 209 211 214 216 219 222 224 226 229 231 234 237 242 247 252 256 261 269 276 282 288 294 297 299 302 306 310 313
223 219 217 216 215 213 212 212 210 208 209 207 206 208 210 211 211 213 215 217 220 222 226 228 229 231 235 240 246 251 257 264 270 277 283 287 291 296 300 303 308 311 314
220 216 214 214 213 212 212 210 208 207 209 209 209 211 213 213 212 213 215 216 217 220 224 225 228 231 235 240 247 252 258 264 270 277 284 287 289 294 301 306 309 312 315
217 214 213 212 212 210 210 211 210 207 206 208 209 210 211 212 212 211 213 215 216 218 221 225 229 230 235 242 247 253 259 266 271 277 284 287 291 297 302 307 310 314 317
216 213 210 211 210 209 210 211 211 208 207 207 208 208 208 209 209 209 211 213 216 217 220 225 227 230 235 240 246 254 262 267 271 277 284 288 292 298 303 307 311 314 317
216 213 210 209 209 210 210 209 209 208 206 207 207 205 205 207 207 208 209 211 213 216 219 222 226 230 234 240 245 253 261 268 273 278 283 289 295 299 303 308 311 314 318
216 213 210 210 210 210 209 207 206 206 206 206 205 203 203 205 206 207 208 208 211 215 216 221 226 231 234 240 247 255 262 269 274 278 284 291 296 299 304 309 312 315 319
214 211 209 209 210 208 206 205 203 203 205 205 203 201 202 202 202 204 205 207 210 213 217 221 226 229 234 241 249 254 260 268 273 280 285 290 295 299 304 309 312 315 318
Height
5520 5525 5530 5537 5544 5551 5560 5569 5577 5586 5596 5605 5614 5623 5633 5641 5649 5657 5665 5672 5679 5684 5690 5695 5700 5704 5707 5710 5712 5714 5716 5716 5717 5716 5715 5714 5712 5710 5708 5705 5701 5698 5693
5514 5518 5524 5530 5536 5545 5553 5561 5569 5578 5588 5597 5606 5615 5624 5632 5639 5648 5656 5663 5669 5676 5682 5687 5692 5695 5699 5702 5704 5706 5708 5709 5709 5709 5708 5706 5705 5702 5700 5697 5693 5689 5685
5508 5512 5517 5523 5530 5538 5545 5554 5562 5571 5580 5589 5597 5606 5614 5623 5631 5639 5647 5654 5661 5667 5673 5679 5684 5687 5691 5694 5697 5698 5700 5701 5701 5701 5700 5699 5697 5694 5692 5689 5685 5681 5676
5502 5507 5512 5518 5525 5532 5539 5547 5555 5564 5572 5581 5589 5597 5606 5615 5623 5630 5638 5645 5652 5659 5665 5670 5675 5679 5683 5686 5689 5691 5692 5693 5693 5693 5692 5691 5689 5686 5684 5681 5677 5673 5668
5497 5503 5508 5513 5520 5526 5533 5541 5549 5557 5565 5573 5581 5588 5597 5605 5614 5622 5630 5637 5644 5651 5657 5662 5667 5671 5675 5678 5681 5683 5685 5685 5686 5685 5685 5683 5681 5679 5676 5673 5669 5665 5660
5494 5499 5504 5509 5514 5520 5527 5535 5543 5551 5558 5565 5573 5580 5588 5597 5606 5613 5621 5628 5636 5642 5649 5654 5659 5663 5667 5670 5673 5676 5677 5678 5678 5678 5677 5676 5673 5671 5668 5665 5661 5657 5653
5489 5494 5499 5504 5509 5514 5521 5529 5537 5544 5551 5558 5566 5573 5581 5589 5598 5605 5613 5620 5628 5634 5641 5646 5651 5655 5659 5662 5665 5668 5669 5670 5670 5671 5670 5668 5666 5664 5661 5658 5653 5649 5644
5483 5488 5492 5498 5502 5508 5515 5523 5530 5537 5543 5550 5558 5565 5573 5581 5589 5597 5605 5612 5620 5627 5633 5638 5643 5648 5652 5655 5658 5660 5661 5662 5663 5663 5662 5660 5658 5656 5653 5650 5646 5641 5635
5477 5481 5486 5491 5496 5503 5509 5516 5523 5530 5536 5543 5550 5558 5566 5574 5582 5589 5597 5604 5612 5619 5625 5631 5636 5640 5644 5647 5650 5652 5654 5654 5655 5654 5653 5652 5650 5648 5645 5642 5638 5633 5627
5471 5475 5480 5484 5490 5496 5502 5509 5516 5522 5529 5536 5543 5551 5559 5567 5574 5582 5589 5597 5604 5611 5617 5623 5628 5632 5636 5639 5642 5644 5646 5647 5647 5647 5646 5644 5642 5640 5637 5634 5630 5625 5619
5464 5468 5473 5478 5483 5489 5496 5502 5508 5515 5522 5529 5537 5545 5552 5560 5567 5575 5582 5590 5597 5604 5610 5615 5620 5624 5628 5631 5634 5636 5638 5639 5639 5639 5637 5636 5635 5632 5629 5625 5621 5616 5611
5457 5462 5466 5471 5476 5482 5489 5495 5502 5508 5515 5522 5530 5537 5545 5552 5560 5567 5575 5582 5590 5596 5602 5608 5612 5616 5620 5624 5626 5629 5630 5631 5631 5631 5630 5629 5627 5624 5621 5617 5613 5608 5602
5450 5454 5459 5464 5469 5475 5481 5488 5494 5501 5508 5515 5523 5530 5538 5546 5553 5560 5567 5574 5581 5588 5594 5600 5604 5608 5612 5616 5619 5621 5622 5623 5623 5623 5622 5621 5619 5617 5613 5609 5604 5599 5594
5444 5447 5452 5457 5462 5468 5474 5480 5487 5494 5501 5509 5516 5524 5531 5539 5546 5554 5560 5567 5574 5580 5586 5592 5596 5600 5604 5608 5611 5613 5615 5616 5616 5616 5615 5613 5611 5608 5605 5601 5597 5591 5586
5437 5441 5445 5450 5455 5461 5467 5473 5480 5487 5494 5502 5509 5517 5525 5533 5541 5547 5554 5561 5567 5573 5579 5584 5589 5593 5597 5600 5603 5606 5607 5608 5608 5608 5607 5605 5603 5600 5597 5593 5589 5584 5578
5430 5434 5438 5443 5448 5454 5461 5467 5473 5480 5487 5495 5502 5510 5518 5526 5533 5540 5547 5554 5560 5566 5572 5577 5582 5586 5590 5594 5596 5598 5600 5600 5601 5601 5600 5598 5596 5593 5589 5585 5581 5576 5571
5423 5427 5431 5436 5442 5448 5454 5461 5467 5474 5481 5488 5496 5503 5511 5519 5526 5533 5540 5546 5553 5559 5565 5570 5575 5580 5583 5587 5589 5591 5593 5593 5593 5593 5593 5591 5588 5585 5582 5578 5574 5569 5563
5417 5420 5425 5430 5435 5441 5448 5455 5462 5468 5475 5482 5489 5497 5505 5512 5519 5526 5533 5539 5546 5552 5559 5564 5569 5573 5576 5580 5582 5584 5585 5586 5586 5586 5585 5583 5581 5578 5574 5571 5566 5561 5556
5411 5415 5419 5424 5429 5435 5442 5448 5455 5462 5469 5476 5483 5490 5498 5505 5512 5519 5526 5533 5540 5546 5552 5557 5562 5566 5570 5573 5575 5576 5578 5578 5579 5579 5578 5576 5573 5571 5567 5563 5559 5555 5549
5405 5409 5413 5418 5424 5429 5436 5442 5449 5456 5463 5470 5477 5484 5491 5498 5506 5513 5520 5527 5534 5540 5546 5551 5555 5560 5563 5566 5568 5570 5571 5571 5572 5572 5571 5569 5566 5564 5561 5557 5552 5548 5542
5400 5404 5408 5413 5419 5424 5430 5436 5443 5450 5457 5464 5471 5478 5485 5493 5501 5508 5515 5522 5528 5534 5539 5545 5549 5553 5557 5560 5562 5563 5564 5565 5565 5565 5564 5562 5560 5557 5554 5550 5546 5541 5536
5395 5399 5403 5408 5414 5420 5425 5431 5437 5444 5451 5458 5465 5472 5479 5487 5494 5502 5509 5516 5522 5528 5533 5538 5543 5547 5550 5553 5555 5557 5558 5559 5559 5558 5557 5555 5553 5550 5547 5543 5539 5534 5529
5390 5394 5399 5404 5409 5415 5421 5426 5432 5438 5445 5452 5458 5466 5473 5481 5489 5496 5503 5510 5516 5521 5527 5532 5537 5541 5544 5547 5549 5551 5552 5552 5552 5552 5551 5549 5547 5544 5540 5537 5533 5528 5523
5385 5389 5394 5399 5404 5410 5415 5421 5427 5433 5439 5446 5453 5460 5468 5475 5483 5490 5497 5504 5510 5516 5521 5526 5531 5535 5538 5541 5543 5544 5545 5546 5546 5545 5544 5543 5540 5537 5534 5531 5527 5522 5518
5380 5384 5389 5394 5399 5404 5410 5416 5422 5428 5435 5441 5448 5456 5463 5470 5477 5484 5491 5498 5505 5510 5516 5521 5525 5529 5532 5535 5537 5538 5539 5539 5539 5539 5538 5536 5534 5531 5528 5525 5521 5517 5512
5375 5379 5384 5389 5394 5400 5405 5412 5418 5424 5430 5437 5444 5451 5458 5465 5472 5479 5486 5493 5499 5505 5510 5515 5519 5523 5526 5528 5530 5532 5533 5533 5533 5533 5531 5530 5528 5525 5522 5519 5515 5511 5507